Tiree, United Kingdom

6:35 PM BST on August 20, 2017 (GMT +0100)
Tiree

Weather History for EGPU - January, 2013

Change the Weather History Date:

Thursday, January 3, 2013

  Actual Average Record
Temperature  
Mean Temperature 49 °F -  
Max Temperature 50 °F 45 °F 50 °F (2013)
Min Temperature 48 °F 37 °F 30 °F (1997)
Degree Days  
Heating Degree Days 16    
Moisture  
Dew Point 49 °F    
Average Humidity 98    
Maximum Humidity 100    
Minimum Humidity 92    
Precipitation  
Precipitation 0.08 in 0.16 in - ()
Sea Level Pressure  
Sea Level Pressure 30.22 in    
Wind  
Wind Speed 16 mph ()    
Max Wind Speed 28 mph    
Max Gust Speed -    
Visibility 2.5 miles    
Events Rain    
Averages and records for this station are not official NWS values.
T = Trace of Precipitation, MM = Missing Value Source: Averaged Metar Reports

Daily Weather History Graph

Daily Weather History Graph

Search for Another Location

Airport or City:

Trip Planner

Search our weather history database for the weather conditions in past years. The results will help you decide how hot, cold, wet, or windy it might be!

Date:

Astronomy

Jan. 03, 2013 Rise Set
Actual Time 9:01 AM GMT 4:03 PM GMT
Civil Twilight 8:13 AM GMT 4:50 PM GMT
Nautical Twilight 7:24 AM GMT 5:40 PM GMT
Astronomical Twilight 6:38 AM GMT 6:26 PM GMT
Moon 11:45 PM GMT (1/3) 10:51 AM GMT (1/3)
Length of Visible Light 8h 37m
Length of Day
7h 01m
Waning Gibbous, 68% of the Moon is Illuminated
Jan 3
Waning Gibbous
Jan 5
Last Quarter
Jan 11
New
Jan 18
First Quarter
Jan 27
Full

Hourly Weather History & Observations

Time (GMT) Temp. Dew Point Humidity Pressure Visibility Wind Dir Wind Speed Gust Speed Precip Events Conditions
12:20 AM 50.0 °F 50.0 °F 100% 30.04 in 3.1 mi WSW 19.6 mph - N/A   Scattered Clouds
12:50 AM 50.0 °F 50.0 °F 100% 30.04 in 3.1 mi WSW 21.9 mph - N/A   Mostly Cloudy
1:20 AM 50.0 °F 50.0 °F 100% 30.04 in 3.7 mi WSW 20.7 mph - N/A   Mostly Cloudy
1:50 AM 50.0 °F 50.0 °F 100% 30.06 in 3.7 mi West 20.7 mph - N/A   Mostly Cloudy
2:20 AM 50.0 °F 50.0 °F 100% 30.06 in - West 19.6 mph - N/A   Mostly Cloudy
2:50 AM 50 °F 48 °F 92% 30.10 in 4 mi West 19.6 mph - - Rain Rain
2:50 AM 50.0 °F 48.2 °F 94% 30.09 in 3.7 mi West 19.6 mph - N/A   Partly Cloudy
3:20 AM 50.0 °F 48.2 °F 94% 30.09 in 3.1 mi West 17.3 mph - N/A   Partly Cloudy
3:50 AM 50.0 °F 48.2 °F 94% 30.12 in 3.1 mi West 16.1 mph - N/A   Mostly Cloudy
4:20 AM 48.2 °F 48.2 °F 100% 30.12 in 2.8 mi West 13.8 mph - N/A   Scattered Clouds
4:50 AM 48.2 °F 48.2 °F 100% 30.15 in - West 12.7 mph - N/A   Mist
5:20 AM 48.2 °F 48.2 °F 100% 30.15 in - West 11.5 mph - N/A   Mostly Cloudy
5:50 AM 49 °F 48 °F 94% 30.19 in 2 mi WSW 12.7 mph - -   Mist
5:50 AM 48.2 °F 48.2 °F 100% 30.18 in - WSW 12.7 mph - N/A   Partly Cloudy
6:20 AM 48.2 °F 46.4 °F 93% 30.18 in - West 11.5 mph - N/A   Partly Cloudy
6:50 AM 48.2 °F 46.4 °F 93% 30.21 in - West 10.4 mph - N/A   Mist
7:20 AM 48.2 °F 46.4 °F 93% 30.21 in - WSW 9.2 mph - N/A   Mist
7:50 AM 48.2 °F 48.2 °F 100% 30.21 in - WSW 10.4 mph - N/A   Partly Cloudy
8:20 AM 48.2 °F 48.2 °F 100% 30.21 in - WSW 10.4 mph - N/A   Partly Cloudy
8:50 AM 48 °F 48 °F 98% 30.25 in 2 mi WSW 10.4 mph - -   Mist
8:50 AM 48.2 °F 48.2 °F 100% 30.24 in 2.2 mi WSW 10.4 mph - N/A   Light Drizzle
9:20 AM 50.0 °F 48.2 °F 94% 30.24 in 2.2 mi WSW 12.7 mph - N/A   Drizzle
9:50 AM 50.0 °F 50.0 °F 100% 30.24 in 2.5 mi WSW 15.0 mph - N/A   Light Drizzle
10:20 AM 50.0 °F 48.2 °F 94% 30.24 in - WSW 10.4 mph - N/A   Light Drizzle
10:50 AM 50.0 °F 48.2 °F 94% 30.24 in - SW 16.1 mph - N/A   Light Drizzle
11:20 AM 50.0 °F 48.2 °F 94% 30.24 in 2.5 mi SW 16.1 mph - N/A Rain Light Rain
11:50 AM 50 °F 49 °F 95% 30.26 in - SW 15.0 mph - -   Mostly Cloudy
11:50 AM 50.0 °F 50.0 °F 100% 30.24 in 2.5 mi SW 15.0 mph - N/A Rain Light Rain
12:20 PM 50.0 °F 48.2 °F 94% 30.24 in 2.8 mi SW 15.0 mph - N/A   Light Drizzle
12:50 PM 50.0 °F 48.2 °F 94% 30.24 in - SW 16.1 mph - N/A Rain Light Rain
1:20 PM 50.0 °F 50.0 °F 100% 30.24 in 3.1 mi SW 15.0 mph - N/A   Light Drizzle
1:50 PM 50.0 °F 50.0 °F 100% 30.21 in 2.5 mi SW 16.1 mph - N/A   Light Drizzle
2:20 PM 50.0 °F 50.0 °F 100% 30.24 in 1.5 mi SW 17.3 mph - N/A   Drizzle
2:50 PM 49 °F 49 °F 100% 30.23 in 1 mi SSW 16.1 mph - -   Mist
2:50 PM 50.0 °F 50.0 °F 100% 30.21 in 1.2 mi SSW 16.1 mph - N/A   Overcast
3:20 PM 50.0 °F 50.0 °F 100% 30.24 in 0.6 mi SW 16.1 mph - N/A   Overcast
3:50 PM 50.0 °F 50.0 °F 100% 30.24 in 0.7 mi WSW 18.4 mph - N/A   Overcast
4:20 PM 50.0 °F 50.0 °F 100% 30.24 in 0.7 mi SW 19.6 mph - N/A   Overcast
4:50 PM 50.0 °F 50.0 °F 100% 30.27 in 1.4 mi WSW 20.7 mph - N/A   Overcast
5:20 PM 50.0 °F 50.0 °F 100% 30.27 in 1.2 mi SW 18.4 mph - N/A   Overcast
5:50 PM 49 °F 49 °F 100% 30.29 in 3 mi SW 16.1 mph - -   Mist
5:50 PM 50.0 °F 50.0 °F 100% 30.27 in 2.2 mi SW 16.1 mph - N/A   Overcast
6:20 PM 50.0 °F 50.0 °F 100% 30.27 in - WSW 24.2 mph - N/A   Overcast
6:50 PM 50.0 °F 50.0 °F 100% 30.27 in 1.4 mi WSW 23.0 mph - N/A   Overcast
7:20 PM 50.0 °F 50.0 °F 100% 30.27 in - WSW 20.7 mph - N/A   Overcast
7:50 PM 50.0 °F 50.0 °F 100% 30.30 in - WSW 24.2 mph - N/A   Overcast
8:20 PM 50.0 °F 50.0 °F 100% 30.30 in - WSW 23.0 mph - N/A   Overcast
8:50 PM 50 °F 50 °F 98% 30.32 in 2 mi WSW 23.0 mph - -   Mist
8:50 PM 50.0 °F 50.0 °F 100% 30.30 in - WSW 23.0 mph - N/A   Overcast
9:20 PM 50.0 °F 50.0 °F 100% 30.30 in 3.1 mi WSW 26.5 mph - N/A   Overcast
9:50 PM 50.0 °F 50.0 °F 100% 30.33 in - WSW 26.5 mph - N/A   Overcast
10:20 PM 50.0 °F 50.0 °F 100% 30.33 in 3.7 mi WSW 25.3 mph - N/A   Overcast
10:50 PM 50.0 °F 50.0 °F 100% 30.33 in 4.3 mi WSW 26.5 mph - N/A   Overcast
11:20 PM 50.0 °F 50.0 °F 100% 30.33 in 3.7 mi WSW 27.6 mph - N/A   Overcast
11:50 PM 50 °F 49 °F 95% 30.35 in 3 mi WSW 27.6 mph - -   Mist
11:50 PM 50.0 °F 48.2 °F 94% 30.33 in 3.1 mi WSW 27.6 mph - N/A   Overcast